Starlink 11420

operational
NORAD ID: 62591 Int'l Des: 2025-008 Owner: SPXS Country: US Constellation: starlink
LEOCIRCULAR

Starlink 11420について

説明を読み込み中...

リアルタイム位置

3D地球を読み込み中...

次回通過

高度履歴

Altitude vs Time

uPlot chart will show altitude changes over time

軌道要素

1 62591U 25008E 25259.66670139 .00047972 00000-0 37581-3 0 9995
2 62591 43.0009 95.2596 0001701 266.7590 84.0374 15.70800440 6013
Epoch: Sep 16, 2025 • Age: 29 hours

現在のステータス

高度 356.8 km
速度 7.70 km/s
衛星直下点 -6.37°S, 129.18°E
打ち上げ日 Jan 13, 2025
運用期間 0.6 years
タイプ internet

技術仕様

分類 Payload
質量 960.00 kg
乾燥質量 910.00 kg
総質量 960.00 kg
長さ 0.30 m
直径 4.10 m
スパン 29.00 m
形状 Box + pan
製造者 SPXS
バスタイプ Starlink V2MD
フェーズステータス In Orbit
所有者/国 SPXS/US

大規模コンステレーション

Loading constellations...